Regional Weather Roundup
Issued by NWS

Home | Current Version | Previous Version | Text Only | Print | Product List | Glossary On
Versions: 1 2 3 4 5 6 7 8 9 10 11 12 13 14 15 16 17 18 19 20 21 22 23 24 25 26 27 28 29 30 31 32 33 34 35 36 37 38 39 40 41 42 43 44 45 46 47 48 49 50
000
ASUS45 KBOU 210807
RWRCO

WEATHER ROUNDUP FOR COLORADO
NATIONAL WEATHER SERVICE DENVER/BOULDER CO
100 AM MST SUN DEC 21 2014

NOTE: "FAIR" INDICATES FEW OR NO CLOUDS BELOW 12000 FEET WITH NO
SIGNIFICANT WEATHER AND/OR OBSTRUCTIONS TO VISIBILITY.

COZ001>005-013-030-031-210900-
...NORTHWEST COLORADO...

CITY           SKY/WX    TMP DP  RH WIND       PRES   REMARKS
CRAIG          MOCLDY    20  18  92 CALM      30.04S
HAYDEN         CLOUDY    27  23  86 E5        30.03S WCI  21
MEEKER         CLOUDY    30  25  81 CALM      30.06S
MOUNT WERNER   NOT AVBL
STEAMBOAT SPGS CLOUDY    26  24  93 CALM      30.04R
WALDEN         CLOUDY    28  21  74 S14G24    29.95S WCI  17
$$

COZ006>008-011-210900-
...WEST CENTRAL VALLEYS...

CITY           SKY/WX    TMP DP  RH WIND       PRES   REMARKS
GRAND JUNCTION CLOUDY    33  31  92 CALM      30.12S
MONTROSE       CLOUDY    31  28  89 CALM      30.13S
EAGLE          CLOUDY    27  27 100 CALM      30.09S
RIFLE          CLOUDY    30  29  96 CALM      30.11S FOG
DELTA          CLOUDY    35  30  82 CALM      30.13S
NUCLA          CLOUDY    32  28  86 CALM      30.14S
$$

COZ017>023-064>068-210900-
...SOUTHWEST COLORADO...

CITY           SKY/WX    TMP DP  RH WIND       PRES   REMARKS
DURANGO        CLOUDY    29  26  89 NE3       30.07F
CORTEZ         MOCLDY    29  27  92 CALM      30.09F
PAGOSA SPRINGS PTCLDY    23  22  98 CALM      30.07F
TELLURIDE      CLOUDY    28  24  84 SE3       30.10S
WOLF CREEK PAS SNOW      14  14 100 MISG      30.04F VSB 1/4
$$

COZ009-010-012-014-032>034-037-058>063-210900-
...CENTRAL COLORADO...

CITY           SKY/WX    TMP DP  RH WIND       PRES   REMARKS
ASPEN          LGT SNOW  24  22  91 SW3       30.05F FOG
BUENA VISTA    CLEAR     32  16  51 W10G20    29.94F WCI  24
COPPER MTN     CLOUDY    19  14  79 W20G36    29.99S WCI   4
BERTHOUD PASS  CLOUDY    10   5  79 MISG      29.92R
COTTONWOOD PAS CLOUDY    30  16  55 W18G36    29.93F WCI  18
GUNNISON       CLOUDY    21  18  86 CALM      30.09F
KREMMLING      FLURRIES  30  23  74 W13       30.02S WCI  20
LEADVILLE      LGT SNOW  22  16  78 VRB5G20   29.99S WCI  16
SALIDA         CLEAR     37  19  49 W20G28    30.01F
SUNLIGHT       CLOUDY   N/A N/A N/A CALM      30.05S
WILKERSON PASS MOCLDY    18  12  79 W10G17    29.94F WCI   6
$$

COZ069>075-210900-
...SAN LUIS VALLEY/SANGRE DE CRISTO MOUNTAINS...

CITY           SKY/WX    TMP DP  RH WIND       PRES   REMARKS
ALAMOSA        MOCLDY    12   8  84 S5        30.01F WCI   4
LA VETA PASS   PTCLDY    21  18  86 SW13G25   29.94F WCI   9
SAGUACHE       CLOUDY    27  18  69 E6        30.02S WCI  20
$$

COZ035-036-038>040-210900-
...NORTHERN COLORADO FRONT RANGE...

CITY           SKY/WX    TMP DP  RH WIND       PRES   REMARKS
DENVER INTL AP PTCLDY    30  21  69 SW10      29.86F WCI  21
DMNS CITY PARK   N/A     32  21  65 S3        29.86F
AURORA         PTCLDY    31  21  67 S6        29.88F WCI  25
FRONT RANGE AP CLEAR     36  23  60 SW6       29.87F
ERIE MUNI ARPT   N/A     23  20  85 SW3       29.87F
BOULDER MUN AP CLEAR     34  23  64 NE5       29.86F WCI  30
CENTENNIAL     PTCLDY    26  19  74 S6        29.87F WCI  19
BROOMFIELD     CLEAR     36  21  55 W8        29.87F
FORT COLLINS   CLEAR     28  18  64 CALM      29.89S
LONGMONT       CLEAR     26  19  76 NW3       29.89S
$$

COZ041-046-047-076>085-087-088-210900-
...PIKES PEAK/PALMER DIVIDE AND SOUTHERN FOOTHILLS...

CITY           SKY/WX    TMP DP  RH WIND       PRES   REMARKS
COLO. SPRINGS  PTCLDY    30  19  63 N5        29.89F WCI  25
A. F. ACADEMY  PTCLDY    27  16  62 NW2       29.88F
ELLICOTT       NOT AVBL
FALCON         CLEAR     27  16  65 NW9       29.89F WCI  17
FORT CARSON    PTCLDY    26  17  68 NW5       29.87F WCI  21
LIMON          PTCLDY    21  18  88 VRB3      29.87F
MONUMENT HILL  CLEAR     23  18  80 SW7       29.88F WCI  15
TRINIDAD       PTCLDY    29  17  61 W10       29.90F WCI  20
$$

COZ042>045-048>051-090-091-210900-
...NORTHEAST COLORADO...

CITY           SKY/WX    TMP DP  RH WIND       PRES   REMARKS
GREELEY ARPT   CLEAR     19   9  63 W5        29.87F WCI  13
AKRON          PTCLDY    29  22  75 SW10      29.85F WCI  20
BURLINGTON     MOCLDY    30  25  81 W8        29.89F WCI  22
WRAY           MOCLDY    32  28  86 W7        29.87F WCI  26
STERLING       CLOUDY    32  27  80 N5        29.87S WCI  27
HOLYOKE        MOCLDY    34  30  86 SW7       29.87F WCI  28
FORT MORGAN    PTCLDY    25  18  73 NW15      29.87F WCI  13
$$

COZ086-089-092>099-210900-
...SOUTHEAST COLORADO...

CITY           SKY/WX    TMP DP  RH WIND       PRES   REMARKS
PUEBLO         CLEAR     24  16  71 CALM      29.89F
LA JUNTA       PTCLDY    29  25  85 W9        29.88F WCI  20
LAMAR          MOCLDY    24  23  96 CALM      29.88S
SPRINGFIELD      N/A     34  26  72 W6        29.86F WCI  29
$$


USA.gov is the U.S. government's official web portal to all federal, state and local government web resources and services.